| time (UTC) | temp C | wind direction | speed KPH | gust KPH | rain 1hr cm | rain 24hr cm | rain mn cm | humidity % | barometer mb |
| 20260505153050 | 21 | 191 | 16.1 | 30.6 | 0.00 | 0.00 | 0.00 | 90 | 1009.6 |
| 20260505151551 | 21 | 180 | 16.1 | 30.6 | 0.00 | 0.00 | 0.00 | 90 | 1009.7 |
| 20260505124550 | 20 | 185 | 20.9 | 32.2 | 0.00 | 0.00 | 0.00 | 88 | 1008.5 |
| 20260505123051 | 20 | 192 | 17.7 | 32.2 | 0.00 | 0.00 | 0.00 | 88 | 1008.4 |
| 20260505121554 | 20 | 184 | 17.7 | 35.4 | 0.00 | 0.00 | 0.00 | 88 | 1008.2 |
| 20260505120053 | 20 | 195 | 20.9 | 33.8 | 0.00 | 0.00 | 0.00 | 88 | 1008.2 |
| 20260505114555 | 20 | 166 | 19.3 | 35.4 | 0.00 | 0.00 | 0.00 | 89 | 1008.3 |
| 20260505113049 | 20 | 182 | 17.7 | 33.8 | 0.00 | 0.00 | 0.00 | 89 | 1008.2 |
| 20260505111547 | 20 | 194 | 17.7 | 35.4 | 0.00 | 0.00 | 0.00 | 89 | 1008.1 |
| 20260505101606 | 20 | 196 | 17.7 | 30.6 | 0.00 | 0.00 | 0.00 | 89 | 1008.4 |
| 20260505094552 | 20 | 205 | 19.3 | 32.2 | 0.00 | 0.00 | 0.00 | 89 | 1008.2 |
| 20260505093101 | 20 | 186 | 19.3 | 35.4 | 0.00 | 0.00 | 0.00 | 89 | 1008.1 |
| 20260505091546 | 20 | 173 | 19.3 | 33.8 | 0.00 | 0.00 | 0.00 | 89 | 1008.1 |
| 20260505090048 | 20 | 184 | 17.7 | 33.8 | 0.00 | 0.00 | 0.00 | 88 | 1008.2 |
| 20260505084551 | 20 | 192 | 17.7 | 37.0 | 0.00 | 0.00 | 0.00 | 88 | 1008.4 |
| 20260505083052 | 20 | 173 | 22.5 | 35.4 | 0.00 | 0.00 | 0.00 | 88 | 1008.8 |
| 20260505081600 | 20 | 189 | 20.9 | 38.6 | 0.00 | 0.00 | 0.00 | 87 | 1009.1 |
| 20260505080059 | 20 | 180 | 20.9 | 37.0 | 0.00 | 0.00 | 0.00 | 87 | 1009.2 |
| 20260505074551 | 20 | 178 | 27.4 | 41.8 | 0.00 | 0.00 | 0.00 | 87 | 1009.3 |
| 20260505073049 | 20 | 193 | 19.3 | 40.2 | 0.00 | 0.00 | 0.00 | 87 | 1009.6 |
| 20260505071554 | 20 | 179 | 24.1 | 38.6 | 0.00 | 0.00 | 0.00 | 86 | 1009.8 |
| 20260505070059 | 20 | 180 | 20.9 | 43.5 | 0.00 | 0.00 | 0.00 | 86 | 1009.8 |
| 20260505064551 | 20 | 360 | 22.5 | 38.6 | 0.00 | 0.00 | 0.00 | 86 | 1010.0 |
| 20260505063051 | 20 | 185 | 20.9 | 37.0 | 0.00 | 0.00 | 0.00 | 86 | 1010.2 |
| 20260505061601 | 20 | 186 | 20.9 | 37.0 | 0.00 | 0.00 | 0.00 | 86 | 1010.2 |
| 20260505060046 | 21 | 185 | 19.3 | 37.0 | 0.00 | 0.00 | 0.00 | 85 | 1010.1 |
| 20260505054550 | 21 | 171 | 17.7 | 33.8 | 0.00 | 0.00 | 0.00 | 85 | 1010.2 |
| 20260505053052 | 21 | 147 | 17.7 | 35.4 | 0.00 | 0.00 | 0.00 | 85 | 1010.3 |
| 20260505051544 | 21 | 203 | 16.1 | 37.0 | 0.00 | 0.00 | 0.00 | 85 | 1010.2 |
| 20260505041548 | 21 | 160 | 17.7 | 33.8 | 0.00 | 0.00 | 0.00 | 83 | 1009.8 |
| 20260505040050 | 21 | 181 | 17.7 | 33.8 | 0.00 | 0.00 | 0.00 | 82 | 1010.0 |
| 20260505034551 | 21 | 172 | 16.1 | 30.6 | 0.00 | 0.00 | 0.00 | 82 | 1010.1 |
| 20260505033046 | 21 | 164 | 17.7 | 33.8 | 0.00 | 0.00 | 0.00 | 82 | 1010.0 |
| 20260505031552 | 21 | 152 | 19.3 | 30.6 | 0.00 | 0.00 | 0.00 | 81 | 1010.1 |
| 20260505030049 | 22 | 177 | 16.1 | 30.6 | 0.00 | 0.00 | 0.00 | 80 | 1010.2 |
| 20260505024554 | 22 | 133 | 19.3 | 32.2 | 0.00 | 0.00 | 0.00 | 79 | 1009.8 |
| 20260505023056 | 22 | 164 | 16.1 | 25.7 | 0.00 | 0.00 | 0.00 | 79 | 1009.7 |
| 20260505021554 | 22 | 164 | 17.7 | 27.4 | 0.00 | 0.00 | 0.00 | 78 | 1009.9 |
| 20260505020054 | 22 | 167 | 14.5 | 24.1 | 0.00 | 0.00 | 0.00 | 79 | 1009.5 |
| 20260505014555 | 21 | 161 | 12.9 | 17.7 | 0.00 | 0.00 | 0.00 | 80 | 1009.6 |
| 20260505013043 | 22 | 157 | 11.3 | 17.7 | 0.00 | 0.00 | 0.00 | 78 | 1009.7 |
| 20260505011554 | 22 | 159 | 12.9 | 24.1 | 0.00 | 0.00 | 0.00 | 77 | 1009.6 |
| 20260505010112 | 22 | 155 | 14.5 | 19.3 | 0.00 | 0.00 | 0.00 | 76 | 1009.8 |
| 20260505004551 | 23 | 163 | 14.5 | 24.1 | 0.00 | 0.00 | 0.00 | 75 | 1009.7 |
| 20260505003055 | 23 | 163 | 14.5 | 25.7 | 0.00 | 0.00 | 0.00 | 74 | 1009.6 |
| 20260505001552 | 24 | 163 | 17.7 | 38.6 | 0.00 | 0.00 | 0.00 | 71 | 1009.7 |
| 20260505000049 | 24 | 159 | 20.9 | 37.0 | 0.00 | 0.00 | 0.00 | 70 | 1009.8 |
| 20260504234551 | 24 | 157 | 20.9 | 43.5 | 0.00 | 0.00 | 0.00 | 69 | 1010.1 |
| 20260504233055 | 25 | 157 | 20.9 | 38.6 | 0.00 | 0.00 | 0.00 | 68 | 1010.4 |
| 20260504231548 | 25 | 163 | 22.5 | 37.0 | 0.00 | 0.00 | 0.00 | 68 | 1010.5 |
| 20260504230047 | 25 | 167 | 19.3 | 33.8 | 0.00 | 0.00 | 0.00 | 67 | 1010.8 |
| 20260504224549 | 25 | 175 | 20.9 | 33.8 | 0.00 | 0.00 | 0.00 | 67 | 1010.8 |
| 20260504223100 | 25 | 164 | 20.9 | 43.5 | 0.00 | 0.00 | 0.00 | 68 | 1010.8 |
| 20260504221603 | 25 | 167 | 17.7 | 33.8 | 0.00 | 0.00 | 0.00 | 68 | 1010.9 |
| 20260504220052 | 25 | 169 | 24.1 | 38.6 | 0.00 | 0.00 | 0.00 | 67 | 1010.8 |
| 20260504214602 | 25 | 183 | 17.7 | 35.4 | 0.00 | 0.00 | 0.00 | 66 | 1011.1 |
| 20260504213108 | 26 | 182 | 17.7 | 37.0 | 0.00 | 0.00 | 0.00 | 64 | 1011.3 |
| 20260504211552 | 25 | 144 | 25.7 | 38.6 | 0.00 | 0.00 | 0.00 | 64 | 1011.7 |
| 20260504210053 | 26 | 195 | 20.9 | 33.8 | 0.00 | 0.00 | 0.00 | 64 | 1011.9 |
| 20260504204553 | 25 | 161 | 22.5 | 40.2 | 0.00 | 0.00 | 0.00 | 64 | 1012.2 |
| 20260504203050 | 25 | 161 | 25.7 | 37.0 | 0.00 | 0.00 | 0.00 | 65 | 1012.6 |
| 20260504201549 | 26 | 161 | 20.9 | 33.8 | 0.00 | 0.00 | 0.00 | 63 | 1012.9 |
| 20260504200100 | 25 | 150 | 20.9 | 38.6 | 0.00 | 0.00 | 0.00 | 63 | 1012.9 |
| 20260504194557 | 25 | 162 | 25.7 | 38.6 | 0.00 | 0.00 | 0.00 | 63 | 1013.2 |
| 20260504193102 | 25 | 182 | 20.9 | 32.2 | 0.00 | 0.00 | 0.00 | 61 | 1013.6 |
| 20260504191602 | 25 | 178 | 20.9 | 38.6 | 0.00 | 0.00 | 0.00 | 61 | 1014.0 |
| 20260504190053 | 25 | 165 | 22.5 | 35.4 | 0.00 | 0.00 | 0.00 | 60 | 1014.0 |
| 20260504184551 | 24 | 188 | 24.1 | 38.6 | 0.00 | 0.00 | 0.00 | 60 | 1014.0 |
| 20260504183054 | 24 | 177 | 19.3 | 40.2 | 0.00 | 0.00 | 0.00 | 57 | 1014.2 |
| 20260504181551 | 24 | 181 | 22.5 | 35.4 | 0.00 | 0.00 | 0.00 | 62 | 1014.5 |
| 20260504180051 | 23 | 170 | 19.3 | 38.6 | 0.00 | 0.00 | 0.00 | 61 | 1014.8 |
| 20260504174555 | 23 | 169 | 24.1 | 37.0 | 0.00 | 0.00 | 0.00 | 57 | 1015.2 |
| 20260504173050 | 23 | 159 | 19.3 | 37.0 | 0.00 | 0.00 | 0.00 | 61 | 1015.2 |
| 20260504171600 | 23 | 163 | 20.9 | 38.6 | 0.00 | 0.00 | 0.00 | 60 | 1015.4 |
| 20260504160106 | 21 | 193 | 24.1 | 40.2 | 0.00 | 0.00 | 0.00 | 65 | 1016.1 |